Time,TemperatureF,DewpointF,PressureIn,WindDirection,WindDirectionDegrees,WindSpeedMPH,WindSpeedGustMPH,Humidity,HourlyPrecipIn,Conditions,Clouds,dailyrainin,SoftwareType,DateUTC
2013-10-21 00:04:00,37.7,32.7,29.93,West,267,0.0,0.0,82,0.00,,---,0.00,VWS V14.00,2013-10-21 06:04:00,
2013-10-21 00:09:00,37.5,32.5,29.93,West,269,0.0,0.0,82,0.00,,---,0.00,VWS V14.00,2013-10-21 06:09:00,
2013-10-21 00:14:00,37.3,32.6,29.93,West,278,0.0,0.0,83,0.00,,---,0.00,VWS V14.00,2013-10-21 06:14:00,
2013-10-21 00:19:00,37.1,32.7,29.93,West,281,0.0,0.0,84,0.00,,---,0.00,VWS V14.00,2013-10-21 06:19:00,
2013-10-21 00:25:00,37.0,32.6,29.93,WNW,285,0.0,0.0,84,0.00,,---,0.00,VWS V14.00,2013-10-21 06:25:00,
2013-10-21 00:30:00,37.1,32.7,29.93,West,281,6.0,7.0,84,0.00,,---,0.00,VWS V14.00,2013-10-21 06:30:00,
2013-10-21 00:35:00,37.4,33.0,29.93,WNW,292,4.0,6.0,84,0.00,,---,0.00,VWS V14.00,2013-10-21 06:35:00,
2013-10-21 00:40:00,37.5,32.8,29.93,WNW,288,4.0,9.0,83,0.00,,---,0.00,VWS V14.00,2013-10-21 06:40:00,
2013-10-21 00:45:00,37.5,32.5,29.93,WNW,284,2.0,6.0,82,0.00,,---,0.00,VWS V14.00,2013-10-21 06:45:00,
2013-10-21 00:50:00,37.4,32.4,29.94,NNE,22,5.0,9.0,82,0.00,,---,0.00,VWS V14.00,2013-10-21 06:50:00,
2013-10-21 00:55:00,35.4,30.8,29.95,NNW,344,5.0,8.0,83,0.00,,---,0.00,VWS V14.00,2013-10-21 06:55:00,
2013-10-21 01:00:00,34.7,31.2,29.95,NNW,333,1.0,8.0,87,0.00,,---,0.00,VWS V14.00,2013-10-21 07:00:00,
2013-10-21 01:05:00,35.0,31.2,29.95,NE,48,7.0,10.0,86,0.00,,---,0.00,VWS V14.00,2013-10-21 07:05:00,
2013-10-21 01:10:00,33.7,30.0,29.96,North,11,6.0,10.0,86,0.00,,---,0.00,VWS V14.00,2013-10-21 07:10:00,
2013-10-21 01:15:00,32.6,29.5,29.96,NNW,346,6.0,8.0,88,0.00,,---,0.00,VWS V14.00,2013-10-21 07:15:00,
2013-10-21 01:20:00,32.8,30.2,29.97,North,5,6.0,9.0,90,0.00,,---,0.00,VWS V14.00,2013-10-21 07:20:00,
2013-10-21 01:25:00,33.7,31.6,29.97,NNE,24,5.0,8.0,92,0.00,,---,0.00,VWS V14.00,2013-10-21 07:25:00,
2013-10-21 01:30:00,33.8,31.7,29.97,North,360,8.0,9.0,92,0.00,,---,0.00,VWS V14.00,2013-10-21 07:30:00,
2013-10-21 01:36:00,34.2,32.1,29.97,North,9,6.0,11.0,92,0.00,,---,0.00,VWS V14.00,2013-10-21 07:36:00,
2013-10-21 01:41:00,34.1,32.0,29.97,North,360,10.0,11.0,92,0.00,,---,0.00,VWS V14.00,2013-10-21 07:41:00,
2013-10-21 01:46:00,34.2,32.1,29.98,North,355,8.0,10.0,92,0.00,,---,0.00,VWS V14.00,2013-10-21 07:46:00,
2013-10-21 01:51:00,34.1,32.0,29.98,North,355,6.0,10.0,92,0.00,,---,0.00,VWS V14.00,2013-10-21 07:51:00,
2013-10-21 01:56:00,34.0,31.9,29.98,North,350,7.0,7.0,92,0.00,,---,0.00,VWS V14.00,2013-10-21 07:56:00,
2013-10-21 02:01:00,34.3,32.2,29.98,NNW,346,6.0,10.0,92,0.00,,---,0.00,VWS V14.00,2013-10-21 08:01:00,
2013-10-21 02:06:00,34.8,32.5,29.99,NNW,340,8.0,8.0,91,0.00,,---,0.00,VWS V14.00,2013-10-21 08:06:00,
2013-10-21 02:11:00,35.0,32.4,29.99,NW,317,7.0,8.0,90,0.00,,---,0.00,VWS V14.00,2013-10-21 08:11:00,
2013-10-21 02:16:00,34.9,32.3,29.99,NW,325,4.0,7.0,90,0.00,,---,0.00,VWS V14.00,2013-10-21 08:16:00,
2013-10-21 02:21:00,34.9,32.0,29.99,NW,318,7.0,8.0,89,0.00,,---,0.00,VWS V14.00,2013-10-21 08:21:00,
2013-10-21 02:26:00,35.1,32.2,29.98,NW,309,7.0,8.0,89,0.00,,---,0.00,VWS V14.00,2013-10-21 08:26:00,
2013-10-21 02:31:00,35.2,32.3,29.98,WNW,286,7.0,8.0,89,0.00,,---,0.00,VWS V14.00,2013-10-21 08:31:00,
2013-10-21 02:36:00,35.1,31.9,29.98,West,266,0.0,0.0,88,0.00,,---,0.00,VWS V14.00,2013-10-21 08:36:00,
2013-10-21 02:41:00,35.3,31.8,29.98,West,269,0.0,0.0,87,0.00,,---,0.00,VWS V14.00,2013-10-21 08:41:00,
2013-10-21 02:46:00,35.5,31.7,29.98,West,271,0.0,0.0,86,0.00,,---,0.00,VWS V14.00,2013-10-21 08:46:00,
2013-10-21 02:51:00,35.6,31.5,29.98,NW,308,0.0,0.0,85,0.00,,---,0.00,VWS V14.00,2013-10-21 08:51:00,
2013-10-21 02:56:00,35.9,31.5,29.98,WNW,283,0.0,0.0,84,0.00,,---,0.00,VWS V14.00,2013-10-21 08:56:00,
2013-10-21 03:01:00,35.7,31.0,29.98,West,264,0.0,0.0,83,0.00,,---,0.00,VWS V14.00,2013-10-21 09:01:00,
2013-10-21 03:06:00,35.7,31.0,29.98,West,266,0.0,0.0,83,0.00,,---,0.00,VWS V14.00,2013-10-21 09:06:00,
2013-10-21 03:12:00,35.3,31.0,29.98,West,266,0.0,0.0,84,0.00,,---,0.00,VWS V14.00,2013-10-21 09:12:00,
2013-10-21 03:17:00,35.2,30.9,29.98,WSW,245,0.0,0.0,84,0.00,,---,0.00,VWS V14.00,2013-10-21 09:17:00,
2013-10-21 03:22:00,35.5,30.9,29.98,WSW,248,0.0,0.0,83,0.00,,---,0.00,VWS V14.00,2013-10-21 09:22:00,
2013-10-21 03:27:00,35.6,30.7,29.98,WSW,248,0.0,0.0,82,0.00,,---,0.00,VWS V14.00,2013-10-21 09:27:00,
2013-10-21 03:32:00,35.2,30.6,29.98,WSW,248,0.0,0.0,83,0.00,,---,0.00,VWS V14.00,2013-10-21 09:32:00,
2013-10-21 03:37:00,35.1,30.5,29.98,SW,223,0.0,0.0,83,0.00,,---,0.00,VWS V14.00,2013-10-21 09:37:00,
2013-10-21 03:42:00,35.5,30.9,29.98,WSW,254,7.0,8.0,83,0.00,,---,0.00,VWS V14.00,2013-10-21 09:42:00,
2013-10-21 03:47:00,35.7,30.5,29.98,WSW,255,0.0,0.0,81,0.00,,---,0.00,VWS V14.00,2013-10-21 09:47:00,
2013-10-21 03:52:00,36.6,30.4,29.98,WSW,257,0.0,0.0,78,0.00,,---,0.00,VWS V14.00,2013-10-21 09:52:00,
2013-10-21 03:57:00,36.6,30.4,29.98,WSW,257,0.0,0.0,78,0.00,,---,0.00,VWS V14.00,2013-10-21 09:57:00,
2013-10-21 04:02:00,35.7,29.5,29.98,NW,312,0.0,0.0,78,0.00,,---,0.00,VWS V14.00,2013-10-21 10:02:00,
2013-10-21 04:07:00,35.0,29.8,29.98,NW,311,0.0,0.0,81,0.00,,---,0.00,VWS V14.00,2013-10-21 10:07:00,
2013-10-21 04:12:00,35.3,30.7,29.98,NNW,329,0.0,0.0,83,0.00,,---,0.00,VWS V14.00,2013-10-21 10:12:00,
2013-10-21 04:17:00,35.2,30.3,29.99,NNW,333,0.0,0.0,82,0.00,,---,0.00,VWS V14.00,2013-10-21 10:17:00,
2013-10-21 04:22:00,35.1,30.8,29.98,NNW,333,0.0,0.0,84,0.00,,---,0.00,VWS V14.00,2013-10-21 10:22:00,
2013-10-21 04:27:00,35.5,31.5,29.99,NNW,333,0.0,0.0,85,0.00,,---,0.00,VWS V14.00,2013-10-21 10:27:00,
2013-10-21 04:32:00,35.7,31.6,29.99,NNW,333,0.0,0.0,85,0.00,,---,0.00,VWS V14.00,2013-10-21 10:32:00,
2013-10-21 04:37:00,35.6,31.2,29.98,NW,324,0.0,0.0,84,0.00,,---,0.00,VWS V14.00,2013-10-21 10:37:00,
2013-10-21 04:42:00,35.5,30.9,29.98,NW,324,0.0,0.0,83,0.00,,---,0.00,VWS V14.00,2013-10-21 10:42:00,
2013-10-21 04:47:00,34.9,30.0,29.98,NW,324,0.0,0.0,82,0.00,,---,0.00,VWS V14.00,2013-10-21 10:47:00,
2013-10-21 04:52:00,34.7,29.8,29.98,NW,324,0.0,0.0,82,0.00,,---,0.00,VWS V14.00,2013-10-21 10:52:00,
2013-10-21 04:58:00,34.6,30.0,29.98,NW,324,0.0,0.0,83,0.00,,---,0.00,VWS V14.00,2013-10-21 10:58:00,
2013-10-21 05:03:00,34.4,29.8,29.98,NW,324,0.0,0.0,83,0.00,,---,0.00,VWS V14.00,2013-10-21 11:03:00,
2013-10-21 05:08:00,34.7,29.8,29.98,NW,324,0.0,0.0,82,0.00,,---,0.00,VWS V14.00,2013-10-21 11:08:00,
2013-10-21 05:13:00,34.6,29.7,29.99,NW,324,0.0,0.0,82,0.00,,---,0.00,VWS V14.00,2013-10-21 11:13:00,
2013-10-21 05:18:00,34.7,29.8,29.99,WNW,286,0.0,0.0,82,0.00,,---,0.00,VWS V14.00,2013-10-21 11:18:00,
2013-10-21 05:23:00,34.8,30.2,29.99,WNW,288,0.0,0.0,83,0.00,,---,0.00,VWS V14.00,2013-10-21 11:23:00,
2013-10-21 05:28:00,34.9,30.3,29.99,WNW,286,4.0,4.0,83,0.00,,---,0.00,VWS V14.00,2013-10-21 11:28:00,
2013-10-21 05:33:00,35.1,30.2,29.99,WNW,288,0.0,4.0,82,0.00,,---,0.00,VWS V14.00,2013-10-21 11:33:00,
2013-10-21 05:38:00,34.6,29.4,29.99,WNW,288,0.0,0.0,81,0.00,,---,0.00,VWS V14.00,2013-10-21 11:38:00,
2013-10-21 05:43:00,34.3,29.7,29.99,WNW,288,0.0,0.0,83,0.00,,---,0.00,VWS V14.00,2013-10-21 11:43:00,
2013-10-21 05:48:00,34.8,29.9,29.99,NW,306,0.0,0.0,82,0.00,,---,0.00,VWS V14.00,2013-10-21 11:48:00,
2013-10-21 05:53:00,34.8,29.9,29.99,NW,306,0.0,0.0,82,0.00,,---,0.00,VWS V14.00,2013-10-21 11:53:00,
2013-10-21 05:58:00,34.7,29.5,30.00,WNW,284,0.0,0.0,81,0.00,,---,0.00,VWS V14.00,2013-10-21 11:58:00,
2013-10-21 06:03:00,35.2,30.9,30.00,West,279,0.0,0.0,84,0.00,,---,0.00,VWS V14.00,2013-10-21 12:03:00,
2013-10-21 06:08:00,35.0,30.1,30.00,West,279,0.0,0.0,82,0.00,,---,0.00,VWS V14.00,2013-10-21 12:08:00,
2013-10-21 06:13:00,34.7,30.1,30.00,West,279,0.0,0.0,83,0.00,,---,0.00,VWS V14.00,2013-10-21 12:13:00,
2013-10-21 06:18:00,34.8,29.9,30.00,West,279,0.0,0.0,82,0.00,,---,0.00,VWS V14.00,2013-10-21 12:18:00,
2013-10-21 06:23:00,35.4,30.5,30.00,West,279,0.0,0.0,82,0.00,,---,0.00,VWS V14.00,2013-10-21 12:23:00,
2013-10-21 06:29:00,35.7,29.8,30.00,West,279,0.0,0.0,79,0.00,,---,0.00,VWS V14.00,2013-10-21 12:29:00,
2013-10-21 06:34:00,35.8,29.9,30.00,West,261,0.0,1.0,79,0.00,,---,0.00,VWS V14.00,2013-10-21 12:34:00,
2013-10-21 06:39:00,35.5,29.3,30.00,WSW,252,0.0,0.0,78,0.00,,---,0.00,VWS V14.00,2013-10-21 12:39:00,
2013-10-21 06:44:00,35.0,29.2,30.00,WSW,252,0.0,0.0,79,0.00,,---,0.00,VWS V14.00,2013-10-21 12:44:00,
2013-10-21 06:49:00,35.3,28.8,30.00,West,279,5.0,7.0,77,0.00,,---,0.00,VWS V14.00,2013-10-21 12:49:00,
2013-10-21 06:54:00,36.2,30.0,30.01,WNW,290,11.0,11.0,78,0.00,,---,0.00,VWS V14.00,2013-10-21 12:54:00,
2013-10-21 06:59:00,36.2,30.0,30.01,West,274,0.0,10.0,78,0.00,,---,0.00,VWS V14.00,2013-10-21 12:59:00,
2013-10-21 07:04:00,35.8,29.0,30.01,West,277,0.0,10.0,76,0.00,,---,0.00,VWS V14.00,2013-10-21 13:04:00,
2013-10-21 07:09:00,35.5,28.0,30.01,West,277,0.0,0.0,74,0.00,,---,0.00,VWS V14.00,2013-10-21 13:09:00,
2013-10-21 07:14:00,35.6,27.8,30.01,West,277,0.0,0.0,73,0.00,,---,0.00,VWS V14.00,2013-10-21 13:14:00,
2013-10-21 07:19:00,36.2,28.7,30.01,West,279,0.0,4.0,74,0.00,,---,0.00,VWS V14.00,2013-10-21 13:19:00,
2013-10-21 07:24:00,35.9,27.8,30.01,WNW,282,3.0,4.0,72,0.00,,---,0.00,VWS V14.00,2013-10-21 13:24:00,
2013-10-21 07:29:00,36.7,29.5,30.02,SSW,196,0.0,5.0,75,0.00,,---,0.00,VWS V14.00,2013-10-21 13:29:00,
2013-10-21 07:34:00,36.7,30.8,30.02,West,260,1.0,2.0,79,0.00,,---,0.00,VWS V14.00,2013-10-21 13:34:00,
2013-10-21 07:39:00,37.2,29.7,30.02,West,268,0.0,2.0,74,0.00,,---,0.00,VWS V14.00,2013-10-21 13:39:00,
2013-10-21 07:44:00,37.8,29.6,30.02,West,275,0.0,0.0,72,0.00,,---,0.00,VWS V14.00,2013-10-21 13:44:00,
2013-10-21 07:49:00,37.1,29.6,30.02,WNW,283,7.0,7.0,74,0.00,,---,0.00,VWS V14.00,2013-10-21 13:49:00,
2013-10-21 07:54:00,38.1,28.8,30.02,West,272,4.0,4.0,69,0.00,,---,0.00,VWS V14.00,2013-10-21 13:54:00,
2013-10-21 07:59:00,39.7,28.1,30.02,West,273,4.0,5.0,63,0.00,,---,0.00,VWS V14.00,2013-10-21 13:59:00,
2013-10-21 08:05:00,40.8,26.3,30.02,West,260,2.0,4.0,56,0.00,,---,0.00,VWS V14.00,2013-10-21 14:05:00,
2013-10-21 08:10:00,41.5,26.5,30.02,West,278,4.0,6.0,55,0.00,,---,0.00,VWS V14.00,2013-10-21 14:10:00,
2013-10-21 08:15:00,41.7,28.4,30.02,WNW,282,5.0,7.0,59,0.00,,---,0.00,VWS V14.00,2013-10-21 14:15:00,
2013-10-21 08:20:00,41.7,28.9,30.03,WNW,285,4.0,7.0,60,0.00,,---,0.00,VWS V14.00,2013-10-21 14:20:00,
2013-10-21 08:25:00,42.0,27.9,30.03,West,267,0.0,1.0,57,0.00,,---,0.00,VWS V14.00,2013-10-21 14:25:00,
2013-10-21 08:30:00,42.4,29.9,30.03,WNW,284,4.0,6.0,61,0.00,,---,0.00,VWS V14.00,2013-10-21 14:30:00,
2013-10-21 08:35:00,42.6,30.9,30.03,WNW,297,5.0,7.0,63,0.00,,---,0.00,VWS V14.00,2013-10-21 14:35:00,
2013-10-21 08:40:00,42.4,30.3,30.03,WNW,294,1.0,8.0,62,0.00,,---,0.00,VWS V14.00,2013-10-21 14:40:00,
2013-10-21 08:45:00,41.7,30.8,30.03,NW,308,3.0,7.0,65,0.00,,---,0.00,VWS V14.00,2013-10-21 14:45:00,
2013-10-21 08:50:00,41.1,30.6,30.04,WNW,302,8.0,10.0,66,0.00,,---,0.00,VWS V14.00,2013-10-21 14:50:00,
2013-10-21 08:55:00,41.5,29.1,30.04,WNW,303,6.0,9.0,61,0.00,,---,0.00,VWS V14.00,2013-10-21 14:55:00,
2013-10-21 09:01:00,41.9,30.2,30.04,WNW,286,4.0,10.0,63,0.00,,---,0.00,VWS V14.00,2013-10-21 15:01:00,
2013-10-21 09:06:00,43.2,28.6,30.04,WNW,296,8.0,9.0,56,0.00,,---,0.00,VWS V14.00,2013-10-21 15:06:00,
2013-10-21 09:11:00,43.6,29.8,30.04,WNW,286,7.0,9.0,58,0.00,,---,0.00,VWS V14.00,2013-10-21 15:11:00,
2013-10-21 09:16:00,44.4,28.4,30.03,WNW,286,0.0,0.0,53,0.00,,---,0.00,VWS V14.00,2013-10-21 15:16:00,
2013-10-21 09:21:00,45.7,29.1,30.03,NW,311,0.0,0.0,52,0.00,,---,0.00,VWS V14.00,2013-10-21 15:21:00,
2013-10-21 09:26:00,46.8,28.7,30.03,SW,236,0.0,0.0,49,0.00,,---,0.00,VWS V14.00,2013-10-21 15:26:00,
2013-10-21 09:31:00,47.4,30.7,30.04,South,182,0.0,1.0,52,0.00,,---,0.00,VWS V14.00,2013-10-21 15:31:00,
2013-10-21 09:36:00,47.7,31.0,30.03,SE,146,4.0,4.0,52,0.00,,---,0.00,VWS V14.00,2013-10-21 15:36:00,
2013-10-21 09:41:00,48.0,28.8,30.03,SSE,155,5.0,8.0,47,0.00,,---,0.00,VWS V14.00,2013-10-21 15:41:00,
2013-10-21 09:46:00,48.2,27.9,30.03,SSE,148,2.0,5.0,45,0.00,,---,0.00,VWS V14.00,2013-10-21 15:46:00,
2013-10-21 09:51:00,48.4,26.4,30.03,SSW,205,5.0,8.0,42,0.00,,---,0.00,VWS V14.00,2013-10-21 15:51:00,
2013-10-21 09:56:00,48.8,26.7,30.03,South,190,1.0,7.0,42,0.00,,---,0.00,VWS V14.00,2013-10-21 15:56:00,
2013-10-21 10:01:00,49.0,26.3,30.03,SW,228,0.0,9.0,41,0.00,,---,0.00,VWS V14.00,2013-10-21 16:01:00,
2013-10-21 10:06:00,49.0,25.8,30.02,South,190,5.0,8.0,40,0.00,,---,0.00,VWS V14.00,2013-10-21 16:06:00,
2013-10-21 10:11:00,49.2,26.5,30.02,SSE,157,0.0,8.0,41,0.00,,---,0.00,VWS V14.00,2013-10-21 16:11:00,
2013-10-21 10:16:00,50.0,26.0,30.02,SSW,193,1.0,7.0,39,0.00,,---,0.00,VWS V14.00,2013-10-21 16:16:00,
2013-10-21 10:21:00,50.0,26.6,30.02,SSE,160,4.0,11.0,40,0.00,,---,0.00,VWS V14.00,2013-10-21 16:21:00,
2013-10-21 10:26:00,50.2,28.0,30.01,South,178,7.0,8.0,42,0.00,,---,0.00,VWS V14.00,2013-10-21 16:26:00,
2013-10-21 10:31:00,50.3,28.1,30.01,South,172,6.0,11.0,42,0.00,,---,0.00,VWS V14.00,2013-10-21 16:31:00,
2013-10-21 10:36:00,50.6,27.2,30.01,SW,216,0.0,10.0,40,0.00,,---,0.00,VWS V14.00,2013-10-21 16:36:00,
2013-10-21 10:42:00,50.9,27.5,30.01,South,190,0.0,10.0,40,0.00,,---,0.00,VWS V14.00,2013-10-21 16:42:00,
2013-10-21 10:47:00,51.0,27.5,30.01,South,171,6.0,11.0,40,0.00,,---,0.00,VWS V14.00,2013-10-21 16:47:00,
2013-10-21 10:52:00,51.2,25.8,30.01,SSE,168,6.0,11.0,37,0.00,,---,0.00,VWS V14.00,2013-10-21 16:52:00,
2013-10-21 10:57:00,51.3,25.9,30.01,South,172,5.0,9.0,37,0.00,,---,0.00,VWS V14.00,2013-10-21 16:57:00,
2013-10-21 11:02:00,51.6,28.1,30.00,SSW,195,5.0,10.0,40,0.00,,---,0.00,VWS V14.00,2013-10-21 17:02:00,
2013-10-21 11:07:00,52.1,28.5,30.00,South,171,5.0,8.0,40,0.00,,---,0.00,VWS V14.00,2013-10-21 17:07:00,
2013-10-21 11:12:00,52.3,28.7,30.00,SSE,164,5.0,9.0,40,0.00,,---,0.00,VWS V14.00,2013-10-21 17:12:00,
2013-10-21 11:17:00,52.8,27.9,30.00,South,175,0.0,7.0,38,0.00,,---,0.00,VWS V14.00,2013-10-21 17:17:00,
2013-10-21 11:22:00,52.9,28.0,30.00,SSE,163,2.0,7.0,38,0.00,,---,0.00,VWS V14.00,2013-10-21 17:22:00,
2013-10-21 11:27:00,52.9,30.5,30.00,SE,143,7.0,9.0,42,0.00,,---,0.00,VWS V14.00,2013-10-21 17:27:00,
2013-10-21 11:32:00,53.0,28.7,30.00,NNE,23,0.0,9.0,39,0.00,,---,0.00,VWS V14.00,2013-10-21 17:32:00,
2013-10-21 11:37:00,53.7,32.3,30.00,SSE,150,9.0,10.0,44,0.00,,---,0.00,VWS V14.00,2013-10-21 17:37:00,
2013-10-21 11:42:00,53.1,32.3,30.00,SE,136,10.0,13.0,45,0.00,,---,0.00,VWS V14.00,2013-10-21 17:42:00,
2013-10-21 11:47:00,52.6,30.2,30.00,SSE,165,0.0,11.0,42,0.00,,---,0.00,VWS V14.00,2013-10-21 17:47:00,
2013-10-21 11:53:00,52.5,31.2,29.99,South,171,7.0,11.0,44,0.00,,---,0.00,VWS V14.00,2013-10-21 17:53:00,
2013-10-21 11:58:00,53.0,32.2,29.99,South,169,6.0,10.0,45,0.00,,---,0.00,VWS V14.00,2013-10-21 17:58:00,
2013-10-21 12:03:00,53.2,31.9,29.99,South,173,0.0,12.0,44,0.00,,---,0.00,VWS V14.00,2013-10-21 18:03:00,
2013-10-21 12:08:00,53.5,32.1,29.99,SSE,154,2.0,10.0,44,0.00,,---,0.00,VWS V14.00,2013-10-21 18:08:00,
2013-10-21 12:13:00,53.7,30.6,29.99,SE,146,7.0,10.0,41,0.00,,---,0.00,VWS V14.00,2013-10-21 18:13:00,
2013-10-21 12:18:00,53.6,31.7,29.99,East,84,1.0,5.0,43,0.00,,---,0.00,VWS V14.00,2013-10-21 18:18:00,
2013-10-21 12:23:00,53.8,31.3,29.98,SE,129,4.0,10.0,42,0.00,,---,0.00,VWS V14.00,2013-10-21 18:23:00,
2013-10-21 12:28:00,53.7,30.6,29.98,SSE,150,0.0,8.0,41,0.00,,---,0.00,VWS V14.00,2013-10-21 18:28:00,
2013-10-21 12:33:00,53.8,30.7,29.98,ESE,112,0.0,8.0,41,0.00,,---,0.00,VWS V14.00,2013-10-21 18:33:00,
2013-10-21 12:38:00,53.9,30.1,29.98,East,84,0.0,11.0,40,0.00,,---,0.00,VWS V14.00,2013-10-21 18:38:00,
2013-10-21 12:43:00,54.0,29.0,29.98,SE,133,0.0,11.0,38,0.00,,---,0.00,VWS V14.00,2013-10-21 18:43:00,
2013-10-21 12:48:00,53.9,30.1,29.98,SE,129,0.0,7.0,40,0.00,,---,0.00,VWS V14.00,2013-10-21 18:48:00,
2013-10-21 12:53:00,53.8,28.8,29.97,SSE,147,8.0,14.0,38,0.00,,---,0.00,VWS V14.00,2013-10-21 18:53:00,
2013-10-21 12:58:00,53.7,28.1,29.97,SSE,162,1.0,10.0,37,0.00,,---,0.00,VWS V14.00,2013-10-21 18:58:00,
2013-10-21 13:04:00,54.4,28.7,29.97,South,184,5.0,12.0,37,0.00,,---,0.00,VWS V14.00,2013-10-21 19:04:00,
2013-10-21 13:09:00,55.1,30.0,29.97,SSE,149,8.0,12.0,38,0.00,,---,0.00,VWS V14.00,2013-10-21 19:09:00,
2013-10-21 13:14:00,55.5,31.0,29.96,SE,142,6.0,12.0,39,0.00,,---,0.00,VWS V14.00,2013-10-21 19:14:00,
2013-10-21 13:19:00,55.8,27.9,29.96,ESE,119,0.0,13.0,34,0.00,,---,0.00,VWS V14.00,2013-10-21 19:19:00,
2013-10-21 13:24:00,55.7,29.9,29.96,ESE,112,0.0,14.0,37,0.00,,---,0.00,VWS V14.00,2013-10-21 19:24:00,
2013-10-21 13:29:00,56.2,30.3,29.96,ENE,71,0.0,0.0,37,0.00,,---,0.00,VWS V14.00,2013-10-21 19:29:00,
2013-10-21 13:34:00,56.5,31.2,29.96,NNE,23,3.0,3.0,38,0.00,,---,0.00,VWS V14.00,2013-10-21 19:34:00,
2013-10-21 13:39:00,56.8,28.0,29.96,NNE,14,9.0,17.0,33,0.00,,---,0.00,VWS V14.00,2013-10-21 19:39:00,
2013-10-21 13:44:00,57.0,30.3,29.95,NNE,12,12.0,16.0,36,0.00,,---,0.00,VWS V14.00,2013-10-21 19:44:00,
2013-10-21 13:49:00,57.0,28.2,29.95,NNE,16,9.0,22.0,33,0.00,,---,0.00,VWS V14.00,2013-10-21 19:49:00,
2013-10-21 13:54:00,56.6,30.0,29.95,NNE,23,15.0,16.0,36,0.00,,---,0.00,VWS V14.00,2013-10-21 19:54:00,
2013-10-21 13:59:00,56.3,29.7,29.94,NE,34,18.0,20.0,36,0.00,,---,0.00,VWS V14.00,2013-10-21 19:59:00,
2013-10-21 14:04:00,55.7,28.5,29.94,NNE,19,12.0,13.0,35,0.00,,---,0.00,VWS V14.00,2013-10-21 20:04:00,
2013-10-21 14:09:00,56.1,27.4,29.94,South,169,1.0,14.0,33,0.00,,---,0.00,VWS V14.00,2013-10-21 20:09:00,
2013-10-21 14:14:00,55.7,29.9,29.94,SSW,204,4.0,11.0,37,0.00,,---,0.00,VWS V14.00,2013-10-21 20:14:00,
2013-10-21 14:20:00,55.8,28.6,29.94,SSE,161,7.0,11.0,35,0.00,,---,0.00,VWS V14.00,2013-10-21 20:20:00,
2013-10-21 14:25:00,56.1,29.5,29.93,SSE,150,1.0,5.0,36,0.00,,---,0.00,VWS V14.00,2013-10-21 20:25:00,
2013-10-21 14:30:00,56.4,27.7,29.93,SSE,167,0.0,10.0,33,0.00,,---,0.00,VWS V14.00,2013-10-21 20:30:00,
2013-10-21 14:35:00,57.0,28.2,29.93,SE,146,7.0,9.0,33,0.00,,---,0.00,VWS V14.00,2013-10-21 20:35:00,
2013-10-21 14:40:00,56.6,27.9,29.93,SSE,153,0.0,11.0,33,0.00,,---,0.00,VWS V14.00,2013-10-21 20:40:00,
2013-10-21 14:45:00,56.4,29.1,29.93,SSE,163,0.0,6.0,35,0.00,,---,0.00,VWS V14.00,2013-10-21 20:45:00,
2013-10-21 14:50:00,56.4,28.4,29.93,SSE,158,4.0,6.0,34,0.00,,---,0.00,VWS V14.00,2013-10-21 20:50:00,
2013-10-21 14:55:00,56.6,28.6,29.92,South,177,0.0,4.0,34,0.00,,---,0.00,VWS V14.00,2013-10-21 20:55:00,
2013-10-21 15:00:00,56.8,28.0,29.92,SSE,167,6.0,9.0,33,0.00,,---,0.00,VWS V14.00,2013-10-21 21:00:00,
2013-10-21 15:05:00,56.3,29.0,29.93,South,190,9.0,11.0,35,0.00,,---,0.00,VWS V14.00,2013-10-21 21:05:00,
2013-10-21 15:10:00,55.9,28.7,29.92,South,186,3.0,13.0,35,0.00,,---,0.00,VWS V14.00,2013-10-21 21:10:00,
2013-10-21 15:15:00,55.6,27.7,29.92,South,184,0.0,9.0,34,0.00,,---,0.00,VWS V14.00,2013-10-21 21:15:00,
2013-10-21 15:20:00,55.7,29.9,29.92,South,179,8.0,10.0,37,0.00,,---,0.00,VWS V14.00,2013-10-21 21:20:00,
2013-10-21 15:26:00,55.7,29.9,29.92,SSW,194,2.0,7.0,37,0.00,,---,0.00,VWS V14.00,2013-10-21 21:26:00,
2013-10-21 15:31:00,55.8,28.6,29.92,South,186,0.0,8.0,35,0.00,,---,0.00,VWS V14.00,2013-10-21 21:31:00,
2013-10-21 15:36:00,56.2,29.6,29.92,SSE,167,6.0,10.0,36,0.00,,---,0.00,VWS V14.00,2013-10-21 21:36:00,
2013-10-21 15:41:00,56.1,30.9,29.91,SSE,150,13.0,13.0,38,0.00,,---,0.00,VWS V14.00,2013-10-21 21:41:00,
2013-10-21 15:46:00,56.5,29.2,29.91,South,175,7.0,11.0,35,0.00,,---,0.00,VWS V14.00,2013-10-21 21:46:00,
2013-10-21 15:51:00,56.8,30.1,29.91,SSE,152,9.0,11.0,36,0.00,,---,0.00,VWS V14.00,2013-10-21 21:51:00,
2013-10-21 15:56:00,56.8,29.5,29.91,South,182,9.0,13.0,35,0.00,,---,0.00,VWS V14.00,2013-10-21 21:56:00,
2013-10-21 16:01:00,56.8,31.5,29.91,SSE,161,7.0,13.0,38,0.00,,---,0.00,VWS V14.00,2013-10-21 22:01:00,
2013-10-21 16:06:00,56.6,30.0,29.91,SSE,150,10.0,12.0,36,0.00,,---,0.00,VWS V14.00,2013-10-21 22:06:00,
2013-10-21 16:11:00,56.3,28.3,29.90,South,169,7.0,14.0,34,0.00,,---,0.00,VWS V14.00,2013-10-21 22:11:00,
2013-10-21 16:16:00,56.0,29.4,29.90,South,179,7.0,10.0,36,0.00,,---,0.00,VWS V14.00,2013-10-21 22:16:00,
2013-10-21 16:21:00,55.5,29.7,29.90,South,173,2.0,10.0,37,0.00,,---,0.00,VWS V14.00,2013-10-21 22:21:00,
2013-10-21 16:26:00,55.3,29.5,29.90,SSE,163,5.0,12.0,37,0.00,,---,0.00,VWS V14.00,2013-10-21 22:26:00,
2013-10-21 16:31:00,54.9,29.1,29.90,South,179,0.0,12.0,37,0.00,,---,0.00,VWS V14.00,2013-10-21 22:31:00,
2013-10-21 16:36:00,54.8,30.3,29.90,SSE,157,7.0,11.0,39,0.00,,---,0.00,VWS V14.00,2013-10-21 22:36:00,
2013-10-21 16:41:00,54.6,30.2,29.90,SSE,165,9.0,13.0,39,0.00,,---,0.00,VWS V14.00,2013-10-21 22:41:00,
2013-10-21 16:47:00,54.4,30.0,29.90,SSE,154,7.0,10.0,39,0.00,,---,0.00,VWS V14.00,2013-10-21 22:47:00,
2013-10-21 16:52:00,54.2,30.4,29.90,SSE,153,0.0,11.0,40,0.00,,---,0.00,VWS V14.00,2013-10-21 22:52:00,
2013-10-21 16:57:00,54.1,30.3,29.90,SSE,161,4.0,8.0,40,0.00,,---,0.00,VWS V14.00,2013-10-21 22:57:00,
2013-10-21 17:02:00,53.9,29.5,29.90,SE,145,0.0,8.0,39,0.00,,---,0.00,VWS V14.00,2013-10-21 23:02:00,
2013-10-21 17:07:00,53.8,30.1,29.90,South,169,0.0,6.0,40,0.00,,---,0.00,VWS V14.00,2013-10-21 23:07:00,
2013-10-21 17:12:00,53.6,31.1,29.90,SSE,161,0.0,6.0,42,0.00,,---,0.00,VWS V14.00,2013-10-21 23:12:00,
2013-10-21 17:17:00,53.3,30.2,29.90,SSE,155,0.0,0.0,41,0.00,,---,0.00,VWS V14.00,2013-10-21 23:17:00,
2013-10-21 17:23:00,53.1,31.2,29.91,SE,138,0.0,7.0,43,0.00,,---,0.00,VWS V14.00,2013-10-21 23:23:00,
2013-10-21 17:28:00,53.2,30.7,29.91,ESE,120,0.0,0.0,42,0.00,,---,0.00,VWS V14.00,2013-10-21 23:28:00,
2013-10-21 17:33:00,53.2,30.7,29.91,NNE,28,0.0,0.0,42,0.00,,---,0.00,VWS V14.00,2013-10-21 23:33:00,
2013-10-21 17:38:00,52.6,31.3,29.91,North,5,4.0,7.0,44,0.00,,---,0.00,VWS V14.00,2013-10-21 23:38:00,
2013-10-21 17:43:00,52.2,31.5,29.91,North,5,0.0,7.0,45,0.00,,---,0.00,VWS V14.00,2013-10-21 23:43:00,
2013-10-21 17:48:00,52.1,30.9,29.92,North,5,0.0,0.0,44,0.00,,---,0.00,VWS V14.00,2013-10-21 23:48:00,
2013-10-21 17:53:00,52.2,30.4,29.92,North,5,0.0,0.0,43,0.00,,---,0.00,VWS V14.00,2013-10-21 23:53:00,
2013-10-21 17:58:00,52.1,30.9,29.92,North,5,0.0,0.0,44,0.00,,---,0.00,VWS V14.00,2013-10-21 23:58:00,
2013-10-21 18:03:00,52.1,30.3,29.92,NNE,13,0.0,0.0,43,0.00,,---,0.00,VWS V14.00,2013-10-22 00:03:00,
2013-10-21 18:08:00,51.9,30.1,29.92,NNE,13,0.0,0.0,43,0.00,,---,0.00,VWS V14.00,2013-10-22 00:08:00,
2013-10-21 18:13:00,51.9,30.7,29.92,NNE,13,0.0,0.0,44,0.00,,---,0.00,VWS V14.00,2013-10-22 00:13:00,
2013-10-21 18:18:00,52.0,30.2,29.92,NNE,13,0.0,0.0,43,0.00,,---,0.00,VWS V14.00,2013-10-22 00:18:00,
2013-10-21 18:23:00,51.8,30.6,29.92,SW,221,2.0,2.0,44,0.00,,---,0.00,VWS V14.00,2013-10-22 00:23:00,
2013-10-21 18:28:00,51.7,30.5,29.92,SW,221,5.0,5.0,44,0.00,,---,0.00,VWS V14.00,2013-10-22 00:28:00,
2013-10-21 18:33:00,51.6,30.4,29.92,SW,235,4.0,5.0,44,0.00,,---,0.00,VWS V14.00,2013-10-22 00:33:00,
2013-10-21 18:39:00,51.3,30.1,29.92,SW,217,4.0,5.0,44,0.00,,---,0.00,VWS V14.00,2013-10-22 00:39:00,
2013-10-21 18:44:00,51.2,30.6,29.92,WSW,241,5.0,5.0,45,0.00,,---,0.00,VWS V14.00,2013-10-22 00:44:00,
2013-10-21 18:49:00,51.3,30.1,29.92,WSW,257,3.0,6.0,44,0.00,,---,0.00,VWS V14.00,2013-10-22 00:49:00,
2013-10-21 18:54:00,51.3,30.1,29.92,WSW,257,3.0,6.0,44,0.00,,---,0.00,VWS V14.00,2013-10-22 00:54:00,
2013-10-21 18:59:00,51.5,29.8,29.92,SW,221,3.0,4.0,43,0.00,,---,0.00,VWS V14.00,2013-10-22 00:59:00,
2013-10-21 19:04:00,52.0,29.0,29.92,SW,221,3.0,6.0,41,0.00,,---,0.00,VWS V14.00,2013-10-22 01:04:00,
2013-10-21 19:09:00,52.2,28.6,29.92,SW,225,0.0,3.0,40,0.00,,---,0.00,VWS V14.00,2013-10-22 01:09:00,
2013-10-21 19:14:00,52.1,29.1,29.92,SW,232,0.0,0.0,41,0.00,,---,0.00,VWS V14.00,2013-10-22 01:14:00,
2013-10-21 19:19:00,51.8,28.3,29.93,SW,232,0.0,0.0,40,0.00,,---,0.00,VWS V14.00,2013-10-22 01:19:00,
2013-10-21 19:25:00,51.8,28.3,29.92,SW,232,0.0,0.0,40,0.00,,---,0.00,VWS V14.00,2013-10-22 01:25:00,
2013-10-21 19:30:00,51.6,28.1,29.92,SW,232,0.0,0.0,40,0.00,,---,0.00,VWS V14.00,2013-10-22 01:30:00,
2013-10-21 19:35:00,51.5,27.4,29.92,SW,232,0.0,0.0,39,0.00,,---,0.00,VWS V14.00,2013-10-22 01:35:00,
2013-10-21 19:40:00,51.7,28.2,29.93,SW,234,0.0,0.0,40,0.00,,---,0.00,VWS V14.00,2013-10-22 01:40:00,
2013-10-21 19:45:00,51.4,27.3,29.93,WSW,246,0.0,0.0,39,0.00,,---,0.00,VWS V14.00,2013-10-22 01:45:00,
2013-10-21 19:50:00,51.7,26.9,29.93,WSW,246,0.0,0.0,38,0.00,,---,0.00,VWS V14.00,2013-10-22 01:50:00,
2013-10-21 19:54:00,51.8,27.6,29.92,WSW,245,0.0,0.0,39,0.00,,---,0.00,VWS V14.00,2013-10-22 01:54:00,
2013-10-21 19:59:00,51.9,26.5,29.93,WSW,246,0.0,0.0,37,0.00,,---,0.00,VWS V14.00,2013-10-22 01:59:00,
2013-10-21 20:05:00,51.8,27.0,29.93,WSW,247,0.0,0.0,38,0.00,,---,0.00,VWS V14.00,2013-10-22 02:05:00,
2013-10-21 20:10:00,51.3,27.2,29.93,WSW,247,0.0,0.0,39,0.00,,---,0.00,VWS V14.00,2013-10-22 02:10:00,
2013-10-21 20:15:00,51.2,27.1,29.93,WSW,247,0.0,0.0,39,0.00,,---,0.00,VWS V14.00,2013-10-22 02:15:00,
2013-10-21 20:20:00,50.6,27.8,29.93,SSW,211,1.0,2.0,41,0.00,,---,0.00,VWS V14.00,2013-10-22 02:20:00,
2013-10-21 20:25:00,49.7,27.6,29.93,SSW,212,1.0,2.0,42,0.00,,---,0.00,VWS V14.00,2013-10-22 02:25:00,
2013-10-21 20:30:00,49.7,27.6,29.93,SW,215,0.0,2.0,42,0.00,,---,0.00,VWS V14.00,2013-10-22 02:30:00,
2013-10-21 20:35:00,49.8,27.6,29.93,SW,215,0.0,0.0,42,0.00,,---,0.00,VWS V14.00,2013-10-22 02:35:00,
2013-10-21 20:40:00,50.2,26.8,29.93,SW,215,0.0,0.0,40,0.00,,---,0.00,VWS V14.00,2013-10-22 02:40:00,
2013-10-21 20:45:00,50.1,26.7,29.93,SW,229,2.0,4.0,40,0.00,,---,0.00,VWS V14.00,2013-10-22 02:45:00,
2013-10-21 20:50:00,50.3,26.3,29.93,West,264,0.0,4.0,39,0.00,,---,0.00,VWS V14.00,2013-10-22 02:50:00,
2013-10-21 20:55:00,50.6,26.0,29.93,West,267,0.0,0.0,38,0.00,,---,0.00,VWS V14.00,2013-10-22 02:55:00,
2013-10-21 21:00:00,50.8,26.1,29.93,West,266,0.0,0.0,38,0.00,,---,0.00,VWS V14.00,2013-10-22 03:00:00,
2013-10-21 21:05:00,51.2,25.8,29.93,SSW,208,0.0,4.0,37,0.00,,---,0.00,VWS V14.00,2013-10-22 03:05:00,
2013-10-21 21:11:00,51.7,25.6,29.93,WNW,289,0.0,4.0,36,0.00,,---,0.00,VWS V14.00,2013-10-22 03:11:00,
2013-10-21 21:16:00,51.8,25.7,29.93,WNW,291,0.0,0.0,36,0.00,,---,0.00,VWS V14.00,2013-10-22 03:16:00,
2013-10-21 21:21:00,51.9,25.8,29.93,WSW,238,0.0,3.0,36,0.00,,---,0.00,VWS V14.00,2013-10-22 03:21:00,
2013-10-21 21:26:00,52.2,26.1,29.92,SSW,201,5.0,6.0,36,0.00,,---,0.00,VWS V14.00,2013-10-22 03:26:00,
2013-10-21 21:31:00,52.3,25.5,29.92,SSW,193,4.0,6.0,35,0.00,,---,0.00,VWS V14.00,2013-10-22 03:31:00,
2013-10-21 21:36:00,52.0,25.9,29.93,West,261,0.0,3.0,36,0.00,,---,0.00,VWS V14.00,2013-10-22 03:36:00,
2013-10-21 21:41:00,51.8,27.0,29.92,West,261,0.0,3.0,38,0.00,,---,0.00,VWS V14.00,2013-10-22 03:41:00,
2013-10-21 21:46:00,51.9,26.5,29.92,ENE,74,2.0,6.0,37,0.00,,---,0.00,VWS V14.00,2013-10-22 03:46:00,
2013-10-21 21:51:00,51.7,26.9,29.93,ENE,74,0.0,6.0,38,0.00,,---,0.00,VWS V14.00,2013-10-22 03:51:00,
2013-10-21 21:56:00,51.6,27.5,29.92,WNW,284,0.0,0.0,39,0.00,,---,0.00,VWS V14.00,2013-10-22 03:56:00,
2013-10-21 22:01:00,51.8,27.0,29.92,NE,45,0.0,8.0,38,0.00,,---,0.00,VWS V14.00,2013-10-22 04:01:00,
2013-10-21 22:02:00,51.9,27.1,29.92,NE,34,2.0,8.0,38,0.00,,---,0.00,VWS V14.00,2013-10-22 04:02:00,
2013-10-21 22:03:00,52.1,26.6,29.92,NNW,340,6.0,8.0,37,0.00,,---,0.00,VWS V14.00,2013-10-22 04:03:00,
2013-10-21 22:09:00,52.8,27.3,29.92,NNE,16,6.0,9.0,37,0.00,,---,0.00,VWS V14.00,2013-10-22 04:09:00,
2013-10-21 22:14:00,52.9,26.7,29.92,NE,40,4.0,9.0,36,0.00,,---,0.00,VWS V14.00,2013-10-22 04:14:00,
2013-10-21 22:19:00,52.9,27.4,29.92,North,355,5.0,8.0,37,0.00,,---,0.00,VWS V14.00,2013-10-22 04:19:00,
2013-10-21 22:24:00,53.1,26.9,29.92,NNW,342,5.0,8.0,36,0.00,,---,0.00,VWS V14.00,2013-10-22 04:24:00,
2013-10-21 22:29:00,53.7,26.7,29.93,ENE,66,0.0,10.0,35,0.00,,---,0.00,VWS V14.00,2013-10-22 04:29:00,
2013-10-21 22:34:00,53.8,26.8,29.92,NNE,33,0.0,10.0,35,0.00,,---,0.00,VWS V14.00,2013-10-22 04:34:00,
2013-10-21 22:39:00,53.6,25.9,29.92,NNE,33,0.0,0.0,34,0.00,,---,0.00,VWS V14.00,2013-10-22 04:39:00,
2013-10-21 22:44:00,53.7,26.7,29.92,NNE,33,0.0,0.0,35,0.00,,---,0.00,VWS V14.00,2013-10-22 04:44:00,
2013-10-21 22:49:00,53.8,26.8,29.92,NNE,33,0.0,0.0,35,0.00,,---,0.00,VWS V14.00,2013-10-22 04:49:00,
2013-10-21 22:54:00,53.8,26.1,29.92,NE,38,0.0,0.0,34,0.00,,---,0.00,VWS V14.00,2013-10-22 04:54:00,
2013-10-21 22:59:00,53.8,26.1,29.92,NE,37,0.0,0.0,34,0.00,,---,0.00,VWS V14.00,2013-10-22 04:59:00,
2013-10-21 23:04:00,54.0,26.3,29.92,NNE,17,0.0,0.0,34,0.00,,---,0.00,VWS V14.00,2013-10-22 05:04:00,
2013-10-21 23:10:00,53.9,26.2,29.92,NNE,17,0.0,0.0,34,0.00,,---,0.00,VWS V14.00,2013-10-22 05:10:00,
2013-10-21 23:15:00,53.8,26.1,29.92,NNW,336,0.0,0.0,34,0.00,,---,0.00,VWS V14.00,2013-10-22 05:15:00,
2013-10-21 23:20:00,53.6,25.9,29.92,NNW,340,0.0,0.0,34,0.00,,---,0.00,VWS V14.00,2013-10-22 05:20:00,
2013-10-21 23:25:00,53.5,25.1,29.91,NNW,340,0.0,0.0,33,0.00,,---,0.00,VWS V14.00,2013-10-22 05:25:00,
2013-10-21 23:30:00,53.3,25.7,29.91,WNW,282,0.0,6.0,34,0.00,,---,0.00,VWS V14.00,2013-10-22 05:30:00,
2013-10-21 23:35:00,53.2,25.6,29.91,NE,43,0.0,0.0,34,0.00,,---,0.00,VWS V14.00,2013-10-22 05:35:00,
2013-10-21 23:40:00,53.2,24.9,29.91,SSW,196,0.0,4.0,33,0.00,,---,0.00,VWS V14.00,2013-10-22 05:40:00,
2013-10-21 23:45:00,53.5,25.1,29.91,WNW,295,3.0,5.0,33,0.00,,---,0.00,VWS V14.00,2013-10-22 05:45:00,
2013-10-21 23:50:00,53.7,25.3,29.91,NNW,336,0.0,5.0,33,0.00,,---,0.00,VWS V14.00,2013-10-22 05:50:00,
2013-10-21 23:55:00,53.5,25.1,29.91,NNW,337,0.0,0.0,33,0.00,,---,0.00,VWS V14.00,2013-10-22 05:55:00,